#timestamp,LO_Frequency,Hit,StdDev 
1589007615.0,286047003.1,N
1589007615.9,286047003.1,N
1589007635.8,286047001.5,N
1589007655.6,286047001.5,N
1589007675.4,286047003.8,N
1589007695.3,286047001.6,N
1589007715.1,286046998.2,N
1589007735.9,286046998.8,N
1589007755.7,286046998.9,N
1589007775.5,286046999.5,N
1589007795.4,286046996.6,N
1589007815.2,286046995.0,N
1589007835.0,286046995.5,N
1589007836.0,286046995.5,N
1589007855.8,286046996.4,N
1589007875.6,286046996.1,N
1589007895.5,286046995.7,N
1589007915.3,286046995.5,N
1589007935.1,286046994.9,N
1589007955.9,286046995.9,N
1589007975.7,286046993.3,N
1589007995.6,286046993.3,N
1589008015.4,286046994.1,N
1589008035.2,286046992.0,N
1589008055.1,286046991.9,N
1589008056.0,286046991.9,N
1589008075.8,286046994.7,N
1589008095.7,286046992.6,N
1589008115.5,286046991.0,N
1589008135.3,286046988.5,N
1589008155.2,286046993.1,N
1589008175.0,286046993.0,N
1589008175.9,286046993.0,N
1589008195.8,286046988.9,Y
1589008215.6,286046997.8,P
1589008235.4,286046996.8,N
1589008255.3,286046995.4,P
1589008275.1,286046996.3,Y
1589008295.9,286046998.4,P
1589008315.7,286046999.1,N
1589008335.5,286046998.4,N
1589008355.4,286046997.1,N
1589008375.2,286046996.8,Y
1589008395.1,286046999.7,P
1589008396.0,286046999.7,N
1589008415.8,286047000.4,N
1589008435.6,286047002.7,N
1589008455.5,286047001.3,N
1589008475.3,286047000.0,N
1589008495.1,286047000.4,N
1589008515.9,286047000.5,N
1589008535.7,286047002.7,N
1589008555.6,286047001.7,N
1589008575.4,286047003.9,N
1589008595.2,286047003.4,N
1589008615.1,286047002.3,N
1589008616.0,286047002.3,N
1589008635.8,286047002.8,N
1589008655.7,286047003.1,N
1589008675.5,286047003.6,N
1589008695.3,286047004.1,N
1589008715.2,286047003.7,N
1589008735.0,286047003.5,N
1589008735.9,286047003.5,N
1589008755.8,286047003.1,N
1589008775.6,286047003.0,N
1589008795.4,286047005.4,Y
1589008815.3,286047002.1,P
1589008835.1,286047000.4,P
1589008855.8,286047002.4,N
1589008875.7,286047002.5,Y
1589008895.5,286047001.2,P
1589008915.4,286046998.6,P
1589008935.2,286046997.0,N
1589008955.0,286046999.0,N
1589008955.9,286046999.0,N
1589008975.8,286046999.2,N
1589008995.6,286047000.1,N
1589009015.5,286047000.8,N
1589009035.3,286046998.4,N
1589009055.1,286047000.6,N
1589009075.9,286047001.4,N
1589009095.7,286047002.6,N
1589009115.5,286047002.4,N
1589009135.4,286047001.2,N
1589009155.2,286047000.0,N
1589009175.1,286046998.9,N
1589009176.0,286046998.9,N
1589009195.8,286046998.2,N
1589009215.6,286047000.4,N
1589009235.5,286046998.1,N
1589009255.3,286046999.7,N
1589009275.2,286046999.9,N
1589009295.9,286047000.7,N
1589009315.7,286046998.1,N
1589009335.6,286047000.5,N
1589009355.4,286046998.2,N
1589009375.3,286047000.9,N
1589009395.1,286047000.8,N
1589009396.0,286047000.8,N
1589009415.8,286047000.7,N
1589009435.7,286047002.3,N
1589009455.5,286047000.1,N
1589009475.3,286046998.7,N
1589009495.2,286046998.8,N
1589009515.0,286047000.7,N
1589009515.9,286047000.7,N
1589009535.8,286046998.3,N
1589009555.6,286047004.3,Y
1589009575.4,286047004.1,P
1589009595.3,286047004.0,N
1589009615.1,286047002.2,N
1589009635.9,286047000.9,N
1589009655.7,286046999.9,N
1589009675.5,286046999.7,N
1589009695.4,286047002.4,N
1589009715.2,286046998.1,N
1589009735.1,286047002.7,N
1589009736.0,286047002.7,N
1589009755.8,286047000.9,N
1589009775.6,286046998.1,N
1589009795.5,286047000.4,N
1589009815.3,286047000.7,N
1589009835.1,286046998.1,N
1589009855.9,286047000.5,N
1589009875.7,286047000.6,N
1589009895.6,286046998.4,N
1589009915.4,286046998.2,N
1589009935.2,286046999.7,N
1589009955.1,286047000.1,N
1589009956.0,286047000.1,N
1589009975.8,286046999.7,N
1589009995.7,286047002.4,N
1589010015.5,286047002.6,N
1589010035.3,286047001.1,N
1589010055.2,286047000.4,N
1589010075.0,286046998.3,N
1589010075.9,286046998.3,N
1589010095.7,286046998.1,N
1589010115.6,286047002.4,N
1589010135.4,286047001.4,N
1589010155.3,286047002.5,N
1589010175.1,286047002.3,N
1589010176.0,286047002.3,N
1589010195.8,286047001.0,N
1589010215.7,286047002.1,N
1589010235.5,286047002.0,N
1589010255.4,286046998.3,N
1589010275.2,286046998.6,N
1589010295.0,286047000.9,N
1589010295.9,286047000.9,N
1589010315.8,286047000.4,N
1589010335.6,286047000.8,N
1589010355.4,286046998.2,N
1589010375.3,286046999.1,N
1589010395.1,286046999.2,N
1589010415.9,286046997.4,N
1589010435.7,286046996.5,N
1589010455.5,286046996.6,N
1589010475.4,286046999.5,N
1589010495.2,286047001.0,N
1589010515.0,286047000.8,N
1589010516.0,286047000.8,N
1589010535.8,286046998.3,N
1589010555.6,286046998.1,N
1589010575.5,286047011.9,Y
1589010595.3,286046999.3,P
1589010615.1,286047001.1,P
1589010635.9,286046998.8,N
1589010655.7,286047000.5,N
1589010675.6,286047000.5,N
1589010695.4,286047001.1,N
1589010715.2,286047000.6,N
1589010735.1,286046999.0,N
1589010736.0,286046999.0,N
1589010755.8,286046998.9,N
1589010775.7,286047000.0,N
1589010795.5,286047001.1,N
1589010815.3,286046999.7,N
1589010835.2,286047000.2,N
1589010855.0,286047002.5,Y
1589010855.9,286047002.5,P
1589010875.7,286047000.4,N
1589010895.6,286047002.5,N
1589010915.5,286047004.3,Y
1589010935.3,286047002.6,P
1589010955.2,286047001.0,N
1589010975.9,286046999.3,N
1589010995.7,286046998.6,N
1589011015.6,286046999.3,N
1589011035.4,286047000.8,N
1589011055.3,286047002.3,N
1589011075.1,286047000.6,N
1589011076.0,286047000.6,N
1589011095.8,286046999.3,N
1589011115.7,286047001.1,N
1589011135.5,286046999.1,N
1589011155.4,286046998.7,N
1589011175.2,286046998.9,N
1589011195.0,286046998.2,N
1589011195.9,286046998.2,N
